FENGYUN 1C DEB

Satellite information

Favourite Embed

Satellite Type and Status

DEBRISIN ORBIT

Key statistics

Satellite FENGYUN 1C DEB at a glance.

Uptime

9493

Days in orbit

Revolutions

≈ 14.2

Per day

Orbit

SSO

Sun Synchronous Orbit

Inclination

98.4

Latest

Satellite identification and parameters

Extended collection of information and parameters for FENGYUN 1C DEB.

Object identification

Identified? True

Debris? True

Object name: FENGYUN 1C DEB

International designator: 1999-025BTV

Object number (NORAD): 31433

Object ID (CCSDS): 31433

Country: PEOPLES REPUBLIC OF CHINA (PRC)

Current information (Y/N): Y

RCS size: SMALL

Orbital parameters

Period: 101.202 minutes

Inclination: 98.417 deg

SMA: 7193.732 km

Apoapsis: 888.925 km

Periapsis: 742.269 km

RAAN: 37.1769 deg

Eccentricy: 0.0101933

Argument of periapsis: 322.3609 deg

Mean anomaly: 193.6247 deg

Mean motion: 14.22890125 rev/day

Mean motion (dot): 0.00007879 rev/day2

B* drag term: 0.0033386 1/REarth

Two-line elements (TLE)

Creation date: May 4, 2025, 5:21 p.m.

Reference frame: TEME

Reference center: EARTH

Epoch: May 4, 2025, 5:03 a.m. UTC

TLE line 0: 0 FENGYUN 1C DEB

TLE line 1: 1 31433U 99025BTV 25124.21075918 .00007879 00000-0 33386-2 0 9992

TLE line 2: 2 31433 98.4170 37.1769 0101933 322.3609 193.6247 14.22890125923853

Live tracking on map

Real-time ground track for satellite FENGYUN 1C DEB.

In-orbit conjunctions

A list of the most updated potential collisions computed for object FENGYUN 1C DEB.

Target Orbit TCA Probability of collision Miss distance Type
CZ-6A DEB LEO 2025-02-27 07:08:09 0.0001472658 132.0 (m) DEBRIS
METEOR 2-17 DEB LEO 2024-11-15 22:48:39 0.0001227825 423.0 (m) DEBRIS
FENGYUN 1C DEB SSO 2024-11-12 05:15:51 0.0002744706 192.0 (m) DEBRIS
COSMOS 1833 LEO 2024-10-10 01:22:51 0.0001115911 968.0 (m) PAYLOAD
SL-8 R/B LEO 2024-09-28 16:22:15 0.0002516062 412.0 (m) ROCKET BODY

Associated space launch

Chinese polar orbiting meteorological satellite

FENGYUN 1C DEB was lifted into orbit during the mission ‘Long March 4B | Feng Yun 1C’, on board a Long March 4B space rocket.

The launch took place on May 10, 1999, 1:33 a.m. from Launch Complex 7.

For more information about the launch, click the button.

Launch to space Long March 4B | Feng Yun 1C
Long March 4B | Feng Yun 1C

Agency: N/A

Status: Launch Successful

Launch date: May 10, 1999, 1:33 a.m. UTC

Rocket: Long March 4B

Launch pad: Launch Complex 7

Location: Taiyuan Satellite Launch Center, People's Republic of China

...

Latest news about this satellite

There are no fresh news available about this satellite. Check back as we update our databases every day.


Newsletter sign-up

Weekly statistics, charts and insights to help you stay on top of the space industry.